Location: Newark
(27.3794°N, 52.7375°E)
Time: 13:50:56
(UTC+00:00)

Hubble Space Telescope - Visible Passes

Search period start: 23 September 2020 00:00
Search period end: 03 October 2020 00:00
Orbit: 536 x 540 km, 28.5° (Epoch: 22 September)

Date Brightness Start Highest point End Pass type
(mag) Time Alt. Az. Time Alt. Az. Time Alt. Az.
23 Sep 3.4 00:13:32 12° SE 00:13:32 12° SE 00:14:40 10° SE visible
23 Sep 1.7 01:49:50 10° SW 01:53:44 43° SSE 01:57:39 10° E visible
24 Sep 3.5 00:03:40 14° SE 00:03:40 14° SE 00:04:44 10° ESE visible
24 Sep 1.3 01:39:00 10° WSW 01:43:00 53° SSE 01:47:00 10° E visible
24 Sep 3.6 23:53:45 13° ESE 23:53:45 13° ESE 23:54:28 10° ESE visible
25 Sep 1.0 01:29:05 16° WSW 01:32:15 64° SSE 01:36:20 10° E visible
25 Sep 3.9 23:43:47 11° E 23:43:47 11° E 23:44:02 10° E visible
26 Sep 0.8 01:19:07 24° WSW 01:21:32 75° SSE 01:25:39 10° E visible
27 Sep 0.7 01:09:06 34° WSW 01:10:49 85° S 01:14:57 10° E visible
28 Sep 0.6 00:59:04 49° W 01:00:07 87° N 01:04:15 10° E visible
29 Sep 0.6 00:49:00 69° WNW 00:49:25 80° N 00:53:33 10° E visible
30 Sep 0.8 00:38:57 73° NNE 00:38:57 73° NNE 00:42:51 10° E visible
01 Oct 1.4 00:28:54 53° ENE 00:28:54 53° ENE 00:32:10 10° E visible
02 Oct 2.2 00:18:52 37° E 00:18:52 37° E 00:21:29 10° E visible
02 Oct 0.9 01:54:28 10° W 01:58:34 67° SSW 02:02:39 10° ESE visible
